New York, NY

2:42 PM EST on November 18, 2019 (GMT -0500)
La Guardia

Weather History for KLGA - August, 2019

Change the Weather History Date:

Friday, August 2, 2019

  Actual Average Record
Temperature  
Mean Temperature 81 °F 78 °F  
Max Temperature 88 °F 85 °F 102 °F (2006)
Min Temperature 73 °F 70 °F 59 °F (1953)
Degree Days  
Heating Degree Days 0 0  
Month to date heating degree days 0 0  
Since 1 June heating degree days 4 16  
Since 1 July heating degree days 0 0  
Cooling Degree Days 16 13  
Month to date cooling degree days 32 26  
Year to date cooling degree days 857 708  
Since 1 June cooling degree days 795 642  
Growing Degree Days 30 (Base 50)    
Moisture  
Dew Point 62 °F    
Average Humidity 56    
Maximum Humidity 79    
Minimum Humidity 32    
Precipitation  
Precipitation 0.00 in 0.15 in 1.31 in (1986)
Month to date precipitation 0.00 0.30  
Year to date precipitation 32.70 26.43  
Snow  
Snow 0.00 in 0.00 in - ()
Month to date snowfall 0.0 0.0  
Since 1 July snowfall 0.0 0.0  
Snow Depth 0.00 in    
Sea Level Pressure  
Sea Level Pressure 30.10 in    
Wind  
Wind Speed 9 mph (ESE)    
Max Wind Speed 16 mph    
Max Gust Speed 21 mph    
Visibility 10 miles    
Events      
T = Trace of Precipitation, MM = Missing Value Source: NWS Daily Summary

Daily Weather History Graph

Daily Weather History Graph

Search for Another Location

Airport or City:

Astronomy

Aug. 02, 2019 Rise Set
Actual Time 5:52 AM EDT 8:10 PM EDT
Civil Twilight 5:22 AM EDT 8:40 PM EDT
Nautical Twilight 4:44 AM EDT 9:18 PM EDT
Astronomical Twilight 4:02 AM EDT 10:00 PM EDT
Moon 7:28 AM EDT (8/2) 9:36 PM EDT (8/2)
Length of Visible Light 15h 18m
Length of Day
14h 17m
Waxing Crescent, 4% of the Moon is Illuminated
Aug 2
Waxing Crescent
Aug 7
First Quarter
Aug 15
Full
Aug 23
Last Quarter
Aug 30
New

Hourly Weather History & Observations

Time (EDT) Temp. Heat Index Dew Point Humidity Pressure Visibility Wind Dir Wind Speed Gust Speed Precip Events Conditions
12:51 AM 81.0 °F 80.5 °F 54.0 °F 39% 30.09 in 10.0 mi SSW 4.6 mph - N/A   Scattered Clouds
1:51 AM 81.0 °F 81.0 °F 57.0 °F 44% 30.09 in 10.0 mi SW 4.6 mph - N/A   Scattered Clouds
2:51 AM 75.9 °F - 63.0 °F 64% 30.10 in 10.0 mi ENE 4.6 mph - N/A   Mostly Cloudy
3:51 AM 75.0 °F - 64.0 °F 69% 30.10 in 10.0 mi ENE 3.5 mph - N/A   Scattered Clouds
4:51 AM 73.9 °F - 64.9 °F 73% 30.09 in 10.0 mi NE 5.8 mph - N/A   Scattered Clouds
5:51 AM 73.9 °F - 66.0 °F 76% 30.11 in 10.0 mi NE 8.1 mph - N/A   Mostly Cloudy
6:51 AM 73.9 °F - 64.9 °F 73% 30.11 in 10.0 mi NE 9.2 mph - N/A   Mostly Cloudy
7:51 AM 73.9 °F - 64.0 °F 71% 30.13 in 10.0 mi NE 9.2 mph - N/A   Mostly Cloudy
8:51 AM 73.9 °F - 63.0 °F 68% 30.13 in 10.0 mi NE 9.2 mph - N/A   Mostly Cloudy
9:51 AM 73.9 °F - 61.0 °F 64% 30.14 in 10.0 mi NE 8.1 mph - N/A   Mostly Cloudy
10:51 AM 75.9 °F - 62.1 °F 62% 30.15 in 10.0 mi NE 9.2 mph - N/A   Mostly Cloudy
11:51 AM 77.0 °F - 63.0 °F 62% 30.14 in 10.0 mi NE 11.5 mph - N/A   Mostly Cloudy
12:51 PM 78.1 °F - 64.0 °F 62% 30.12 in 10.0 mi NE 10.4 mph - N/A   Mostly Cloudy
1:51 PM 80.1 °F 81.9 °F 64.9 °F 60% 30.10 in 10.0 mi NE 10.4 mph - N/A   Mostly Cloudy
2:51 PM 86.0 °F 84.9 °F 57.0 °F 37% 30.09 in 10.0 mi SE 6.9 mph 16.1 mph N/A   Mostly Cloudy
3:51 PM 84.0 °F - 52.0 °F 33% 30.09 in 10.0 mi SSE 9.2 mph - N/A   Mostly Cloudy
4:51 PM 84.9 °F 83.9 °F 57.0 °F 38% 30.08 in 10.0 mi SSE 13.8 mph - N/A   Mostly Cloudy
5:51 PM 84.0 °F 83.0 °F 55.9 °F 38% 30.08 in 10.0 mi South 12.7 mph - N/A   Mostly Cloudy
6:51 PM 82.9 °F 82.8 °F 59.0 °F 44% 30.08 in 10.0 mi South 10.4 mph 17.3 mph N/A   Mostly Cloudy
7:51 PM 80.1 °F 81.1 °F 61.0 °F 52% 30.08 in 10.0 mi South 10.4 mph - N/A   Mostly Cloudy
8:51 PM 79.0 °F - 64.9 °F 62% 30.09 in 10.0 mi South 10.4 mph - N/A   Mostly Cloudy
9:51 PM 78.1 °F - 66.0 °F 66% 30.09 in 10.0 mi South 9.2 mph - N/A   Overcast
10:51 PM 78.1 °F - 66.9 °F 68% 30.09 in 10.0 mi South 11.5 mph - N/A   Mostly Cloudy
11:51 PM 77.0 °F - 66.9 °F 71% 30.09 in 10.0 mi South 6.9 mph - N/A   Mostly Cloudy